Terminal Aerodrome Forecast
Issued by NWS

Home | Current Version | Previous Version | Text Only | Print | Product List | Glossary On
Versions: 1 2 3 4 5 6 7 8 9 10 11 12 13 14 15 16 17
000
FTUS43 KIND 300500
TAFBMG
TAF
KBMG 300520Z 3006/0106 27005KT P6SM SCT030 BKN050
     FM300800 25003KT 3SM BR OVC008
     FM301100 25006KT 5SM BR SCT015 OVC030
      TEMPO 3011/3013 3SM SHRA OVC015
     FM301600 25008KT P6SM BKN035 PROB30 3018/3024 3SM TSRA OVC030CB
      AMD LTD TO CLD VIS AND WIND TIL 301300=

USA.gov is the U.S. government's official web portal to all federal, state and local government web resources and services.